Weather History for KEAU - April, 2014

Change the Weather History Date:

Monday, April 28, 2014

  Actual Average Record
Temperature  
Mean Temperature 43 °F 52 °F  
Max Temperature 46 °F 64 °F 87 °F (1952)
Min Temperature 40 °F 39 °F 22 °F (1965)
Degree Days  
Heating Degree Days 22 14  
Month to date heating degree days 659 550  
Since 1 July heating degree days 8835 7615  
Cooling Degree Days 0 0  
Month to date cooling degree days 0 0  
Year to date cooling degree days 0 0  
Moisture  
Dew Point 36 °F    
Average Humidity 77    
Maximum Humidity 89    
Minimum Humidity 65    
Precipitation  
Precipitation 0.57 in 0.11 in 0.62 in (1914)
Month to date precipitation 4.94 2.53  
Year to date precipitation 8.87 5.96  
Snow  
Snow 0.00 in 0.10 in 3.30 in (2008)
Month to date snowfall 9.1 1.9  
Since 1 July snowfall 74.8 46.8  
Snow Depth 0.00 in    
Sea Level Pressure  
Sea Level Pressure 29.74 in    
Wind  
Wind Speed 20 mph (East)    
Max Wind Speed 29 mph    
Max Gust Speed 38 mph    
Visibility 10 miles    
Events Rain    
T = Trace of Precipitation, MM = Missing Value Source: NWS Daily Summary

Daily Weather History Graph

Daily Weather History Graph

Search for Another Location

Airport or City:

Trip Planner

Search our weather history database for the weather conditions in past years. The results will help you decide how hot, cold, wet, or windy it might be!

Date:

Astronomy

Apr. 28, 2014 Rise Set
Actual Time 6:00 AM CDT 8:07 PM CDT
Civil Twilight 5:28 AM CDT 8:39 PM CDT
Nautical Twilight 4:48 AM CDT 9:19 PM CDT
Astronomical Twilight 4:05 AM CDT 10:02 PM CDT
Moon 5:41 AM CDT 7:44 PM CDT
Length of Visible Light 15h 11m
Length of Day
14h 07m
Waning Crescent, 0% of the Moon is Illuminated
Apr 28
Waning Crescent
Apr 29
New
May 6
First Quarter
May 14
Full
May 21
Last Quarter

Hourly Weather History & Observations

Time (CDT) Temp. Windchill Dew Point Humidity Pressure Visibility Wind Dir Wind Speed Gust Speed Precip Events Conditions
12:13 AM 43.0 °F 36.0 °F 37.0 °F 80% 29.80 in 10.0 mi East 13.8 mph 23.0 mph N/A   Overcast
12:56 AM 43.0 °F 34.5 °F 36.0 °F 76% 29.83 in 10.0 mi ESE 19.6 mph 25.3 mph N/A   Overcast
1:56 AM 44.1 °F 36.8 °F 34.0 °F 68% 29.81 in 10.0 mi East 16.1 mph 26.5 mph N/A   Overcast
3:56 AM 44.1 °F 35.4 °F 33.1 °F 65% 29.76 in 10.0 mi East 21.9 mph 36.8 mph N/A   Overcast
4:56 AM 43.0 °F 34.0 °F 36.0 °F 76% 29.76 in 10.0 mi East 21.9 mph 33.4 mph 0.00 in Rain Light Rain
5:56 AM 41.0 °F 32.2 °F 37.0 °F 86% 29.76 in 8.0 mi East 18.4 mph 25.3 mph 0.03 in Rain Light Rain
6:03 AM 41.0 °F 32.8 °F 37.0 °F 86% 29.73 in 9.0 mi East 16.1 mph 28.8 mph 0.01 in Rain Light Rain
6:23 AM 41.0 °F 32.5 °F 37.0 °F 86% 29.73 in 10.0 mi East 17.3 mph 32.2 mph 0.01 in   Overcast
6:56 AM 42.1 °F 32.1 °F 35.1 °F 76% 29.74 in 10.0 mi East 25.3 mph 31.1 mph 0.01 in Rain Light Rain
7:56 AM 42.1 °F 33.6 °F 36.0 °F 79% 29.74 in 10.0 mi East 18.4 mph 31.1 mph 0.04 in Rain Light Rain
8:56 AM 43.0 °F 34.8 °F 35.1 °F 74% 29.73 in 10.0 mi East 18.4 mph 28.8 mph 0.02 in   Overcast
9:56 AM 45.0 °F 37.4 °F 33.1 °F 63% 29.70 in 10.0 mi East 18.4 mph 28.8 mph N/A   Overcast
10:56 AM 45.0 °F 37.1 °F 34.0 °F 65% 29.70 in 10.0 mi East 19.6 mph 32.2 mph 0.01 in Rain Light Rain
11:56 AM 45.0 °F 37.1 °F 36.0 °F 71% 29.71 in 10.0 mi East 19.6 mph 26.5 mph 0.02 in Rain Light Rain
12:56 PM 44.1 °F 36.8 °F 37.0 °F 76% 29.73 in 10.0 mi East 16.1 mph 25.3 mph 0.02 in Rain Light Rain
1:56 PM 43.0 °F 33.8 °F 37.9 °F 82% 29.73 in 8.0 mi East 23.0 mph 31.1 mph 0.08 in Rain Rain
2:52 PM 42.8 °F 38.0 °F 39.2 °F 87% 29.74 in 7.0 mi ESE 8.1 mph - 0.11 in Rain Rain
2:56 PM 43.0 °F 37.7 °F 39.0 °F 86% 29.76 in 6.0 mi ESE 9.2 mph - 0.12 in Rain Rain
3:56 PM 43.0 °F 34.0 °F 39.0 °F 86% 29.72 in 8.0 mi East 21.9 mph 32.2 mph 0.12 in Rain Rain
4:56 PM 43.0 °F 33.8 °F 39.0 °F 86% 29.73 in 9.0 mi ENE 23.0 mph 31.1 mph 0.07 in Rain Light Rain
5:56 PM 44.1 °F 35.7 °F 39.0 °F 82% 29.73 in 10.0 mi East 20.7 mph 32.2 mph 0.01 in   Overcast
6:49 PM 44.1 °F 35.9 °F 39.9 °F 85% 29.70 in 10.0 mi ENE 19.6 mph 31.1 mph 0.01 in   Overcast
6:56 PM 44.1 °F 35.0 °F 39.9 °F 85% 29.72 in 10.0 mi ENE 24.2 mph 32.2 mph 0.01 in Rain Light Rain
7:56 PM 44.1 °F 36.5 °F 37.9 °F 79% 29.73 in 10.0 mi ENE 17.3 mph 26.5 mph 0.00 in   Overcast
8:56 PM 45.0 °F 36.0 °F 35.1 °F 68% 29.72 in 10.0 mi East 25.3 mph 35.7 mph N/A   Overcast
9:56 PM 44.1 °F 35.7 °F 33.1 °F 65% 29.71 in 10.0 mi ENE 20.7 mph 33.4 mph N/A   Overcast
10:56 PM 44.1 °F 35.9 °F 33.1 °F 65% 29.72 in 10.0 mi ENE 19.6 mph 31.1 mph N/A   Overcast
11:45 PM 43.0 °F 33.5 °F 34.0 °F 71% 29.71 in 10.0 mi East 24.2 mph 31.1 mph N/A   Overcast
11:56 PM 43.0 °F 34.2 °F 34.0 °F 71% 29.72 in 10.0 mi ENE 20.7 mph 29.9 mph N/A   Overcast